Погода в Леплее

Россия / Республика Мордовия     54°18′35″N   42°51′22″E
темп.,
°C
ветер,
м/с
пор.,
м/с
влажн.,
%
обл.,
%
осадки,
мм/ч
давл.,
гПа
погр.,
м
20 сентября, пн
пн2000:00+6вюв51284100 1.7 1021589
03:00+6в61490100 3.6 1020530
06:00+5в61586100 1.3 1020669
09:00+5вюв61588100 3.8 1020811
12:00+6вюв71591100 4.0 1020843
15:00+6вюв71590100 6.7 1020904
18:00+6вюв71589100 0.9 1019910
21:00+6вюв71592100 3.8 1019896
21 сентября, вт
вт2100:00+6вюв61591100 2.8 1018805
03:00+6вюв61393100 4.3 1017785
06:00+7вюв51293100 0.4 1016670
09:00+7вюв5119295 0.4 1016597
12:00+9вюв4989100 0.2 1016698
15:00+9в41094100 1.3 1015526
18:00+9в41191100 0.3 1014463
21:00+8в41193100 1.0 1013444
22 сентября, ср
ср2200:00+7в4996100 3.9 1012426
03:00+7в2697100 4.1 1011274
06:00+8всв129897 0.0 101095
09:00+10в129799 0.1 1011206
12:00+13в238068 0.3 1010707
15:00+13в468690 1.8 1010577
18:00+11юв388727 1.5 1011255
21:00+9ююв499681 1.6 1012356
23 сентября, чт
чт2300:00+9ююз4994100 0.2 1014523
03:00+7ю279562 0.2 1015288
06:00+5ююв259696 0.0 1016116
09:00+9ююв2585100 0.0 1017281
12:00+10юв2374100 0.0 1016419
15:00+12вюв246395 0.0 1015674
18:00+11вюв3874100 0.0 1013350
21:00+8юв2796100 0.0 1013258
24 сентября, пт
пт2400:00+10ю2595100 0.1 1012359
03:00+8юз1495100 0.6 1012200
06:00+7ююз2294100 0.0 101156
09:00+8ю1383100 0.0 1011247
12:00+11ююв3462100 0.0 10091162
15:00+12ююв3460100 0.0 10081022
18:00+9ююв368287 0.1 1007237
21:00+8ююв2682100 0.1 1006203